This is the latest recevied weather packets stored in our database for station/object DM4XI-13. If no packets are shown the sender has not sent any weather packets the latest 1 day(s).
| Time | Temp. | Humidity | Pressure | Rain* | Wind** | Luminosity | Snow |
|---|---|---|---|---|---|---|---|
| 1778029671 | 10.56° C | 95% | 1005.7 hPa | 0 mm | 0 m/s | 0 W/m² | - |
| 1778029549 | 10.56° C | 95% | 1005.6 hPa | 0 mm | 0.45 m/s, 185° | 0 W/m² | - |
| 1778029488 | 10.56° C | 95% | 1005.8 hPa | 0 mm | 0.45 m/s, 186° | 0 W/m² | - |
| 1778029427 | 10.56° C | 95% | 1005.7 hPa | 0 mm | 0 m/s | 0 W/m² | - |
| 1778029244 | 10.56° C | 95% | 1005.6 hPa | 0 mm | 0.45 m/s, 183° | 0 W/m² | - |
| 1778029183 | 10.56° C | 95% | 1005.6 hPa | 0 mm | 0.45 m/s, 182° | 0 W/m² | - |
| 1778029000 | 10.56° C | 95% | 1005.6 hPa | 0 mm | 0.45 m/s, 181° | 0 W/m² | - |
| 1778028939 | 10.56° C | 95% | 1005.6 hPa | 0 mm | 0.45 m/s, 185° | 0 W/m² | - |
| 1778028817 | 10.56° C | 95% | 1005.8 hPa | 0 mm | 0.89 m/s, 183° | 0 W/m² | - |
| 1778028756 | 10.56° C | 95% | 1005.7 hPa | 0 mm | 0.45 m/s, 180° | 0 W/m² | - |
| 1778028695 | 10.56° C | 95% | 1005.6 hPa | 0 mm | 0.45 m/s, 179° | 0 W/m² | - |
| 1778028634 | 10.56° C | 95% | 1005.7 hPa | 0 mm | 0.45 m/s, 185° | 0 W/m² | - |
| 1778028573 | 10.56° C | 95% | 1005.8 hPa | 0 mm | 0.89 m/s, 182° | 0 W/m² | - |
| 1778028512 | 10.56° C | 95% | 1005.9 hPa | 0 mm | 0.89 m/s, 187° | 0 W/m² | - |
| 1778028451 | 10.56° C | 95% | 1005.7 hPa | 0 mm | 0.89 m/s, 185° | 0 W/m² | - |
| 1778028390 | 10.56° C | 95% | 1005.8 hPa | 0 mm | 0.45 m/s, 181° | 0 W/m² | - |
| 1778028268 | 10.56° C | 95% | 1005.8 hPa | 0 mm | 0.89 m/s, 169° | 0 W/m² | - |
| 1778028207 | 10.56° C | 95% | 1005.6 hPa | 0 mm | 0 m/s | 0 W/m² | - |
| 1778028146 | 10.56° C | 95% | 1006 hPa | 0 mm | 0.45 m/s, 171° | 0 W/m² | - |
| 1778027963 | 10.56° C | 95% | 1005.8 hPa | 0 mm | 0.89 m/s, 183° | 0 W/m² | - |
| 1778027902 | 10.56° C | 95% | 1006 hPa | 0 mm | 0.89 m/s, 184° | 0 W/m² | - |
| 1778027841 | 10.56° C | 95% | 1005.9 hPa | 0 mm | 0.89 m/s, 182° | 0 W/m² | - |
| 1778027780 | 10.56° C | 95% | 1005.8 hPa | 0 mm | 0.89 m/s, 184° | 0 W/m² | - |
| 1778027719 | 10.56° C | 96% | 1005.9 hPa | 0 mm | 0.89 m/s, 187° | 0 W/m² | - |
| 1778027658 | 10.56° C | 96% | 1005.9 hPa | 0 mm | 0.89 m/s, 188° | 0 W/m² | - |
* Rain latest hour (hover to see other rain measurements)
** Current wind speed in m/s (hover to see current wind gust speed)